Weather History for KSNA - June, 2012

Change the Weather History Date:

Monday, June 25, 2012

  Actual Average Record
Temperature  
Mean Temperature 69 °F 68 °F  
Max Temperature 77 °F 75 °F 93 °F (1990)
Min Temperature 60 °F 62 °F 60 °F (2012)
Degree Days  
Heating Degree Days 0 0  
Month to date heating degree days 0 0  
Since 1 June heating degree days 0 0  
Since 1 July heating degree days 1101 1245  
Cooling Degree Days 4 3  
Month to date cooling degree days 58 58  
Year to date cooling degree days 128 125  
Since 1 June cooling degree days 58 58  
Growing Degree Days 18 (Base 50)    
Moisture  
Dew Point 54 °F    
Average Humidity 64    
Maximum Humidity 84    
Minimum Humidity 43    
Precipitation  
Precipitation 0.00 in 0.00 in 0.06 in (1965)
Month to date precipitation 0.00 0.07  
Year to date precipitation 3.87 8.95  
Since 1 July precipitation 6.32  
Snow  
Snow 0.00 in - - ()
Month to date snowfall 0.0  
Year to date snowfall 0.0  
Since 1 June snowfall  
Since 1 July snowfall 0.0  
Snow Depth 0.00 in    
Sea Level Pressure  
Sea Level Pressure 29.98 in    
Wind  
Wind Speed 4 mph (SW)    
Max Wind Speed 12 mph    
Max Gust Speed 17 mph    
Visibility 10 miles    
Events      
T = Trace of Precipitation, MM = Missing Value Source: NWS Daily Summary

Daily Weather History Graph

Daily Weather History Graph

Search for Another Location

Airport or City:

Trip Planner

Search our weather history database for the weather conditions in past years. The results will help you decide how hot, cold, wet, or windy it might be!

Date:

Astronomy

Jun. 25, 2012 Rise Set
Actual Time 5:42 AM PDT 8:05 PM PDT
Civil Twilight 5:13 AM PDT 8:34 PM PDT
Nautical Twilight 4:37 AM PDT 9:10 PM PDT
Astronomical Twilight 3:58 AM PDT 9:49 PM PDT
Moon 11:39 AM PDT (6/25) 11:56 PM PDT (6/25)
Length of Visible Light 15h 21m
Length of Day
14h 23m
Waxing Crescent, 35% of the Moon is Illuminated
Jun 25
Waxing Crescent
Jun 26
First Quarter
Jul 3
Full
Jul 10
Last Quarter
Jul 18
New

Hourly Weather History & Observations

Time (PDT) Temp. Dew Point Humidity Pressure Visibility Wind Dir Wind Speed Gust Speed Precip Events Conditions
12:53 AM 63.0 °F 55.9 °F 78% 29.99 in 10.0 mi SW 3.5 mph - N/A   Clear
1:53 AM 61.0 °F 55.9 °F 83% 29.99 in 10.0 mi SSW 4.6 mph - N/A   Clear
2:53 AM 61.0 °F 55.9 °F 83% 29.99 in 10.0 mi Calm Calm - N/A   Clear
3:53 AM 61.0 °F 55.9 °F 83% 29.99 in 10.0 mi Calm Calm - N/A   Clear
4:53 AM 60.1 °F 55.0 °F 83% 30.00 in 10.0 mi Calm Calm - N/A   Clear
5:35 AM 60.8 °F 55.4 °F 82% 30.01 in 10.0 mi Calm Calm - N/A   Scattered Clouds
5:53 AM 60.1 °F 55.0 °F 83% 30.01 in 10.0 mi Calm Calm - N/A   Partly Cloudy
6:00 AM 60.8 °F 55.4 °F 82% 30.01 in 10.0 mi Calm Calm - N/A   Partly Cloudy
6:53 AM 62.1 °F 55.9 °F 80% 30.01 in 10.0 mi Calm Calm - N/A   Partly Cloudy
7:53 AM 64.0 °F 55.9 °F 75% 30.01 in 10.0 mi Calm Calm - N/A   Partly Cloudy
8:53 AM 66.0 °F 54.0 °F 65% 30.01 in 10.0 mi SW 3.5 mph - N/A   Partly Cloudy
9:53 AM 69.1 °F 55.0 °F 61% 30.01 in 10.0 mi Variable 5.8 mph - N/A   Partly Cloudy
10:53 AM 70.0 °F 54.0 °F 57% 30.01 in 10.0 mi SW 5.8 mph - N/A   Partly Cloudy
11:53 AM 73.0 °F 54.0 °F 51% 30.01 in 10.0 mi SW 8.1 mph - N/A   Partly Cloudy
12:53 PM 73.0 °F 52.0 °F 48% 29.99 in 10.0 mi SW 9.2 mph - N/A   Partly Cloudy
1:53 PM 75.9 °F 51.1 °F 42% 29.97 in 10.0 mi Variable 6.9 mph - N/A   Partly Cloudy
2:53 PM 75.0 °F 54.0 °F 48% 29.96 in 10.0 mi WSW 8.1 mph - N/A   Clear
3:53 PM 73.9 °F 52.0 °F 46% 29.94 in 10.0 mi Variable 5.8 mph - N/A   Clear
4:53 PM 72.0 °F 51.1 °F 48% 29.93 in 10.0 mi WSW 9.2 mph - N/A   Clear
5:53 PM 72.0 °F 51.1 °F 48% 29.93 in 10.0 mi SW 9.2 mph - N/A   Clear
6:53 PM 71.1 °F 50.0 °F 47% 29.92 in 10.0 mi WSW 8.1 mph - N/A   Clear
7:53 PM 68.0 °F 53.1 °F 59% 29.92 in 10.0 mi SW 4.6 mph - N/A   Clear
8:53 PM 66.0 °F 52.0 °F 60% 29.93 in 10.0 mi Calm Calm - N/A   Clear
9:53 PM 64.9 °F 52.0 °F 63% 29.94 in 10.0 mi Calm Calm - N/A   Clear
10:53 PM 63.0 °F 55.0 °F 75% 29.94 in 10.0 mi Calm Calm - N/A   Clear
11:53 PM 63.0 °F 55.9 °F 78% 29.94 in 10.0 mi Calm Calm - N/A   Clear